#timestamp,LO_Frequency,Hit,StdDev 
1578195615.7,286047022.1,P
1578195635.5,286047021.0,P
1578195655.4,286047024.8,P
1578195675.2,286047025.2,Y
1578195695.0,286047000.8,P
1578195695.9,286047000.8,N
1578195715.8,286047000.5,N
1578195735.6,286047000.3,N
1578195755.4,286046998.5,N
1578195775.3,286047000.7,N
1578195795.1,286046998.1,N
1578195815.9,286046998.1,N
1578195835.7,286047000.9,N
1578195855.5,286047000.5,N
1578195875.4,286047001.0,N
1578195895.2,286047001.0,N
1578195915.0,286046998.2,N
1578195915.9,286046998.2,N
1578195935.8,286047001.2,N
1578195955.6,286046998.6,N
1578195975.5,286046998.4,N
1578195995.3,286046998.7,N
1578196015.1,286046998.3,N
1578196035.9,286046998.5,N
1578196055.7,286046999.3,N
1578196075.5,286046999.4,N
1578196095.4,286046997.1,N
1578196115.2,286046998.9,N
1578196135.1,286046996.6,N
1578196136.0,286046996.6,N
1578196155.8,286046999.1,N
1578196175.6,286046997.1,N
1578196195.5,286046996.6,N
1578196215.3,286046999.0,N
1578196235.1,286047001.1,N
1578196255.9,286047002.3,N
1578196275.7,286047001.9,N
1578196295.6,286047002.8,N
1578196315.4,286047002.2,N
1578196335.2,286047002.0,N
1578196355.1,286047002.1,N
1578196356.0,286047002.1,N
1578196375.8,286047004.3,N
1578196395.6,286047001.7,N
1578196415.5,286047002.7,N
1578196435.3,286047002.5,N
1578196455.2,286047003.9,N
1578196475.9,286047004.1,N
1578196495.7,286047001.9,N
1578196515.6,286047002.6,N
1578196535.4,286047001.4,N
1578196555.2,286047001.3,N
1578196575.1,286047004.1,N
1578196576.0,286047004.1,N
1578196595.8,286047004.2,N
1578196615.7,286047003.9,N
1578196635.5,286047003.6,N
1578196655.3,286047004.2,N
1578196675.2,286047004.2,N
1578196695.9,286047004.0,N
1578196715.7,286047004.0,N
1578196735.6,286047004.1,N
1578196755.4,286047003.9,N
1578196775.2,286047003.2,N
1578196795.1,286047003.4,Y
1578196796.0,286047003.4,P
